Retour au catalogue

STARLINK-35678

ActifCommunicationsVLEO
NORAD 66971·PAYLOAD·🇺🇸 United States

Lancé Dec 8, 2025 depuis Cape Canaveral Space Force Station

Loading…

Prochains Passages (prochaines 24 heures)

TLE

FraisSource: CelesTrak SupGP

Époque: Sep 14, 2026, 21:18 UTC

1 66971C 25288N   26257.88798611  .00053268  00000+0  19295-2 0  2572
2 66971  43.0040  34.9520 0001464 273.9970  60.0033 15.27548962    19

Suivez STARLINK-35678 en temps réel avec AllMySat

Download on the App Store